| time (UTC) | temp F | wind direction | speed MPH | gust MPH | rain 1hr in | rain 24hr in | rain mn in | humidity % | barometer mb |
| 20260504081541 | 63 | 196 | 3.0 | 8.0 | 0.00 | 0.00 | 0.00 | 62 | 1009.4 |
| 20260504080521 | 63 | 187 | 4.0 | 11.0 | 0.00 | 0.00 | 0.00 | 62 | 1009.5 |
| 20260504050516 | 64 | 184 | 4.0 | 11.0 | 0.00 | 0.00 | 0.00 | 57 | 1010.0 |
| 20260504045522 | 64 | 179 | 5.0 | 12.0 | 0.00 | 0.00 | 0.00 | 57 | 1010.2 |
| 20260504044537 | 64 | 181 | 5.0 | 14.0 | 0.00 | 0.00 | 0.00 | 56 | 1010.5 |
| 20260504043522 | 64 | 183 | 4.0 | 11.0 | 0.00 | 0.00 | 0.00 | 57 | 1010.4 |
| 20260504042522 | 64 | 187 | 3.0 | 12.0 | 0.00 | 0.00 | 0.00 | 56 | 1010.5 |
| 20260504041522 | 64 | 180 | 3.0 | 10.0 | 0.00 | 0.00 | 0.00 | 56 | 1010.6 |
| 20260504040522 | 64 | 180 | 4.0 | 13.0 | 0.00 | 0.00 | 0.00 | 56 | 1010.7 |
| 20260504035522 | 64 | 166 | 3.0 | 12.0 | 0.00 | 0.00 | 0.00 | 55 | 1010.8 |
| 20260504034516 | 64 | 191 | 4.0 | 13.0 | 0.00 | 0.00 | 0.00 | 55 | 1010.8 |
| 20260504033517 | 63 | 187 | 2.0 | 8.0 | 0.00 | 0.00 | 0.00 | 55 | 1010.9 |
| 20260504032542 | 63 | 179 | 3.0 | 8.0 | 0.00 | 0.00 | 0.00 | 54 | 1011.0 |
| 20260504031522 | 63 | 177 | 1.0 | 6.0 | 0.00 | 0.00 | 0.00 | 55 | 1010.9 |
| 20260504030522 | 63 | 186 | 2.0 | 8.0 | 0.00 | 0.00 | 0.00 | 54 | 1011.1 |
| 20260504025522 | 63 | 206 | 1.0 | 8.0 | 0.00 | 0.00 | 0.00 | 54 | 1011.1 |
| 20260504024522 | 62 | 168 | 1.0 | 6.0 | 0.00 | 0.00 | 0.00 | 54 | 1011.1 |
| 20260504023517 | 62 | 163 | 0.0 | 2.0 | 0.00 | 0.00 | 0.00 | 55 | 1011.0 |
| 20260504022522 | 62 | 167 | 0.0 | 4.0 | 0.00 | 0.00 | 0.00 | 54 | 1011.1 |
| 20260504021522 | 62 | 201 | 0.0 | 3.0 | 0.00 | 0.00 | 0.00 | 55 | 1011.2 |
| 20260504020522 | 61 | 207 | 0.0 | 2.0 | 0.00 | 0.00 | 0.00 | 56 | 1011.1 |
| 20260504015522 | 61 | 207 | 0.0 | 2.0 | 0.00 | 0.00 | 0.00 | 56 | 1011.1 |
| 20260504014522 | 63 | 0.0 | 1.0 | 0.00 | 0.00 | 0.00 | 53 | 1011.1 | |
| 20260504013522 | 64 | 207 | 0.0 | 3.0 | 0.00 | 0.00 | 0.00 | 50 | 1011.1 |
| 20260504012537 | 64 | 186 | 1.0 | 6.0 | 0.00 | 0.00 | 0.00 | 48 | 1011.1 |
| 20260504011542 | 65 | 168 | 0.0 | 5.0 | 0.00 | 0.00 | 0.00 | 47 | 1011.1 |
| 20260504010522 | 66 | 165 | 1.0 | 5.0 | 0.00 | 0.00 | 0.00 | 45 | 1011.2 |
| 20260504005522 | 66 | 190 | 2.0 | 7.0 | 0.00 | 0.00 | 0.00 | 44 | 1011.2 |
| 20260504004522 | 66 | 167 | 2.0 | 10.0 | 0.00 | 0.00 | 0.00 | 44 | 1011.2 |
| 20260504003522 | 67 | 184 | 1.0 | 7.0 | 0.00 | 0.00 | 0.00 | 43 | 1011.1 |
| 20260504002516 | 68 | 190 | 2.0 | 10.0 | 0.00 | 0.00 | 0.00 | 42 | 1011.0 |
| 20260504001537 | 68 | 192 | 2.0 | 11.0 | 0.00 | 0.00 | 0.00 | 43 | 1011.0 |
| 20260504000522 | 68 | 171 | 4.0 | 11.0 | 0.00 | 0.00 | 0.00 | 41 | 1011.0 |
| 20260503235522 | 69 | 179 | 3.0 | 12.0 | 0.00 | 0.00 | 0.00 | 41 | 1011.0 |
| 20260503234523 | 69 | 176 | 4.0 | 13.0 | 0.00 | 0.00 | 0.00 | 40 | 1010.9 |
| 20260503233520 | 69 | 181 | 5.0 | 14.0 | 0.00 | 0.00 | 0.00 | 39 | 1011.1 |
| 20260503232542 | 70 | 192 | 4.0 | 10.0 | 0.00 | 0.00 | 0.00 | 38 | 1011.2 |
| 20260503231536 | 70 | 185 | 5.0 | 17.0 | 0.00 | 0.00 | 0.00 | 37 | 1011.1 |
| 20260503230522 | 70 | 186 | 6.0 | 20.0 | 0.00 | 0.00 | 0.00 | 37 | 1011.2 |
| 20260503225522 | 70 | 171 | 4.0 | 15.0 | 0.00 | 0.00 | 0.00 | 38 | 1011.2 |
| 20260503224522 | 70 | 181 | 5.0 | 14.0 | 0.00 | 0.00 | 0.00 | 38 | 1011.4 |
| 20260503223522 | 70 | 171 | 3.0 | 13.0 | 0.00 | 0.00 | 0.00 | 40 | 1011.4 |
| 20260503222522 | 70 | 187 | 5.0 | 15.0 | 0.00 | 0.00 | 0.00 | 39 | 1011.7 |
| 20260503221517 | 70 | 177 | 5.0 | 13.0 | 0.00 | 0.00 | 0.00 | 38 | 1011.7 |
| 20260503220516 | 71 | 185 | 5.0 | 14.0 | 0.00 | 0.00 | 0.00 | 39 | 1011.8 |
| 20260503215521 | 71 | 179 | 4.0 | 14.0 | 0.00 | 0.00 | 0.00 | 39 | 1012.0 |
| 20260503214522 | 71 | 187 | 5.0 | 16.0 | 0.00 | 0.00 | 0.00 | 37 | 1012.0 |
| 20260503213522 | 71 | 187 | 5.0 | 14.0 | 0.00 | 0.00 | 0.00 | 39 | 1012.2 |
| 20260503212522 | 70 | 166 | 4.0 | 13.0 | 0.00 | 0.00 | 0.00 | 38 | 1012.5 |
| 20260503211542 | 71 | 184 | 4.0 | 14.0 | 0.00 | 0.00 | 0.00 | 38 | 1012.9 |
| 20260503210517 | 70 | 168 | 4.0 | 15.0 | 0.00 | 0.00 | 0.00 | 39 | 1013.2 |
| 20260503205521 | 70 | 199 | 7.0 | 18.0 | 0.00 | 0.00 | 0.00 | 37 | 1013.5 |
| 20260503204522 | 70 | 174 | 3.0 | 14.0 | 0.00 | 0.00 | 0.00 | 40 | 1013.6 |
| 20260503203522 | 70 | 189 | 4.0 | 13.0 | 0.00 | 0.00 | 0.00 | 40 | 1013.8 |
| 20260503202602 | 70 | 189 | 4.0 | 11.0 | 0.00 | 0.00 | 0.00 | 38 | 1014.1 |
| 20260503201522 | 71 | 212 | 7.0 | 16.0 | 0.00 | 0.01 | 0.00 | 40 | 1014.6 |
| 20260503200522 | 69 | 176 | 5.0 | 15.0 | 0.00 | 0.01 | 0.00 | 39 | 1014.8 |
| 20260503195517 | 70 | 199 | 6.0 | 18.0 | 0.00 | 0.01 | 0.00 | 38 | 1015.2 |
| 20260503194522 | 70 | 214 | 6.0 | 14.0 | 0.00 | 0.03 | 0.00 | 37 | 1015.5 |
| 20260503193522 | 69 | 225 | 7.0 | 15.0 | 0.00 | 0.03 | 0.00 | 38 | 1015.7 |
| 20260503192542 | 69 | 187 | 5.0 | 13.0 | 0.00 | 0.03 | 0.00 | 40 | 1015.8 |
| 20260503191542 | 69 | 194 | 7.0 | 14.0 | 0.00 | 0.03 | 0.00 | 38 | 1016.2 |
| 20260503190522 | 68 | 199 | 7.0 | 16.0 | 0.00 | 0.03 | 0.00 | 40 | 1016.4 |
| 20260503185537 | 68 | 178 | 4.0 | 12.0 | 0.00 | 0.03 | 0.00 | 43 | 1016.5 |
| 20260503184517 | 68 | 186 | 6.0 | 14.0 | 0.00 | 0.03 | 0.00 | 42 | 1016.7 |
| 20260503183521 | 68 | 197 | 4.0 | 12.0 | 0.00 | 0.03 | 0.00 | 41 | 1016.9 |
| 20260503182542 | 68 | 198 | 6.0 | 14.0 | 0.00 | 0.03 | 0.00 | 42 | 1017.1 |
| 20260503181521 | 68 | 228 | 6.0 | 13.0 | 0.00 | 0.03 | 0.00 | 44 | 1017.4 |
| 20260503180521 | 67 | 198 | 4.0 | 13.0 | 0.00 | 0.03 | 0.00 | 47 | 1017.5 |
| 20260503175522 | 66 | 186 | 5.0 | 14.0 | 0.00 | 0.03 | 0.00 | 48 | 1017.7 |
| 20260503174516 | 65 | 177 | 4.0 | 12.0 | 0.00 | 0.03 | 0.00 | 46 | 1018.0 |
| 20260503173542 | 64 | 173 | 4.0 | 12.0 | 0.00 | 0.03 | 0.00 | 48 | 1018.1 |
| 20260503172522 | 64 | 177 | 5.0 | 16.0 | 0.00 | 0.03 | 0.00 | 45 | 1018.4 |
| 20260503171522 | 64 | 185 | 5.0 | 13.0 | 0.00 | 0.03 | 0.00 | 48 | 1018.7 |
| 20260503170521 | 63 | 168 | 4.0 | 14.0 | 0.00 | 0.03 | 0.00 | 47 | 1019.0 |
| 20260503150522 | 57 | 183 | 5.0 | 12.0 | 0.00 | 0.03 | 0.00 | 57 | 1019.7 |
| 20260503130521 | 49 | 182 | 1.0 | 6.0 | 0.00 | 0.03 | 0.00 | 84 | 1020.0 |
| 20260503110516 | 41 | 0.0 | 0.0 | 0.00 | 0.03 | 0.00 | 92 | 1019.7 |